[[{"header":{"parameterUnit":"m.s-1","parameterCategory":2,"la1":30.2991,"la2":30.254,"lo1":-89.0895,"lo2":-89.0444,"dy":0.0017,"dx":0.0017,"nx":28,"ny":28,"refTime":"2023-03-16T21:00:00:Z","depth":"0","parameterNumber":2,"parameterNumberName":"U-component_of_CURRENTS"},"data":[0,0,0,0,0,0,0,0,0,0,0,0,0,0,0,0,0,0,0,0,0,0,0,0,0,0,0,0,0,0,0,0,0,0,0,0,0,0,0,0,0,0,0,0,0,0,0,0,0,0,0,0,0,0,0,0,0,0,-0.2194,-0.2194,0,-0.2202,-0.2202,-0.2202,-0.2209,-0.2209,-0.221,-0.221,-0.2234,-0.2235,-0.2235,0,0,0,0,0,0,0,0,0,0,0,0,0,-0.2155,-0.2156,-0.2194,-0.2194,-0.2194,-0.2202,-0.2202,-0.2202,-0.2209,-0.2209,-0.221,-0.221,-0.2234,-0.2235,-0.2235,0,0,0,0,0,0,0,0,0,0,0,0,0,-0.2166,-0.2156,-0.2194,-0.2201,-0.2201,-0.2202,-0.2202,-0.2202,-0.2209,-0.2209,-0.221,-0.221,-0.2234,-0.2235,-0.2235,-0.223,0,0,-0.2237,-0.2237,0,0,0,0,0,0,0,0,-0.2166,-0.2168,-0.2199,-0.22,-0.2201,-0.2207,-0.2197,-0.2213,-0.2209,-0.2204,-0.221,-0.221,-0.2228,-0.2229,-0.2226,-0.2231,-0.2232,-0.2237,-0.2237,-0.2238,-0.2238,0,0,0,0,0,0,0,-0.2165,-0.2167,-0.2195,-0.22,-0.2201,-0.2193,-0.2195,-0.22,-0.2212,-0.2204,-0.2205,-0.221,-0.2228,-0.2225,-0.2227,-0.2233,-0.2237,-0.2238,-0.2238,-0.2238,-0.2207,-0.2205,0,0,0,0,0,0,-0.217,-0.2167,-0.2195,-0.2195,-0.2187,-0.2194,-0.2196,-0.2203,-0.2211,-0.2214,-0.2209,-0.221,-0.2224,-0.2226,-0.2228,-0.2231,-0.2238,-0.2238,-0.2238,-0.2208,-0.2206,-0.2205,0,0,0,0,0,0,-0.2169,-0.2172,-0.2194,-0.2183,-0.2185,-0.2195,-0.2202,-0.2203,-0.2204,-0.2215,-0.2218,-0.2211,-0.2225,-0.2227,-0.2227,-0.2232,-0.2238,-0.2239,-0.2209,-0.2207,-0.2206,-0.2233,0,0,0,0,0,0,-0.2168,-0.2172,-0.2173,-0.2183,-0.2186,-0.2201,-0.2201,-0.2203,-0.2207,-0.2208,-0.2217,-0.222,-0.2225,-0.2226,-0.2227,-0.2233,-0.2239,-0.2211,-0.2208,-0.2206,-0.2233,-0.2232,-0.2231,0,0,0,0,0,-0.2166,-0.2174,-0.2173,-0.2176,-0.2189,-0.2202,-0.2202,-0.2209,-0.2207,-0.221,-0.2207,-0.222,-0.2212,-0.2225,-0.2227,-0.2234,-0.2212,-0.2209,-0.2206,-0.2234,-0.2232,-0.2231,0,0,0,0,0,0,-0.2158,-0.2175,-0.2175,-0.2187,-0.2195,-0.2204,-0.2206,-0.2209,-0.2208,-0.2207,-0.2213,-0.2215,-0.2212,-0.221,-0.2225,-0.2211,-0.2211,-0.2208,-0.2231,-0.2229,-0.2228,-0.2236,-0.224,0,0,0,0,0,-0.2156,-0.2164,-0.2179,-0.2186,-0.2191,-0.2196,-0.2199,-0.2205,-0.2209,-0.2209,-0.2212,-0.2207,-0.22,-0.2206,-0.2198,-0.2201,-0.2194,-0.22,-0.2199,-0.2198,-0.2202,-0.2191,-0.2191,-0.2196,-0.2196,-0.2196,0,0,-0.2153,-0.2164,-0.2168,-0.2184,-0.2188,-0.2204,-0.2199,-0.2209,-0.2218,-0.2212,-0.2217,-0.2204,-0.2196,-0.2194,-0.2193,-0.2199,-0.2189,-0.2195,-0.2195,-0.2199,-0.2189,-0.2189,-0.2189,-0.2195,-0.2195,-0.2195,0,0,-0.2158,-0.2162,-0.2174,-0.2185,-0.2199,-0.2205,-0.221,-0.2219,-0.2218,-0.2222,-0.2209,-0.2196,-0.2199,-0.2189,-0.2186,-0.217,-0.2178,-0.2166,-0.2182,-0.2172,-0.2172,-0.2172,-0.2156,-0.2155,-0.2174,-0.2174,-0.2174,0,-0.2152,-0.2174,-0.2178,-0.2197,-0.2208,-0.2209,-0.2227,-0.2228,-0.2233,-0.2229,-0.2228,-0.2203,-0.2196,-0.2188,-0.218,-0.2172,-0.2166,-0.2197,-0.2174,-0.2174,-0.2174,-0.2157,-0.2155,-0.2175,-0.2175,-0.2175,-0.2174,0,-0.217,-0.219,-0.2198,-0.2223,-0.2234,-0.2248,-0.2257,-0.2259,-0.2256,-0.2254,-0.2239,-0.2219,-0.2207,-0.2196,-0.219,-0.2179,-0.2175,-0.2172,-0.2187,-0.2176,-0.2157,-0.2155,-0.2176,-0.2176,-0.2176,-0.2175,0,0,-0.214,-0.2201,-0.22,-0.2221,-0.2249,-0.2258,-0.2274,-0.2283,-0.2287,-0.2277,-0.2279,-0.2249,-0.2231,-0.2223,-0.2204,-0.2195,-0.2183,-0.219,-0.2189,-0.219,-0.2161,-0.2088,-0.2079,-0.2186,-0.2186,-0.2186,-0.2147,0,-0.2148,-0.2195,-0.2221,-0.2255,-0.2278,-0.2292,-0.2307,-0.2312,-0.2311,-0.2311,-0.2281,-0.2271,-0.2245,-0.2237,-0.2223,-0.2192,-0.2179,-0.2193,-0.2157,-0.2155,-0.2107,-0.2074,-0.1992,-0.1945,-0.2145,-0.2145,-0.2144,0,-0.2142,-0.218,-0.2226,-0.2278,-0.2287,-0.2306,-0.2323,-0.2339,-0.2341,-0.2338,-0.2324,-0.2306,-0.2279,-0.2262,-0.2211,-0.2226,-0.2194,-0.217,-0.2168,-0.2092,-0.2078,-0.1987,-0.1933,-0.1923,-0.2141,-0.2141,-0.2141,0,-0.2103,-0.2171,-0.2209,-0.2228,-0.229,-0.2303,-0.2325,-0.2338,-0.235,-0.2352,-0.2353,-0.2328,-0.2306,-0.2273,-0.2207,-0.2219,-0.2151,-0.2161,-0.2064,-0.2059,-0.1975,-0.1962,-0.192,-0.2126,-0.2126,-0.2126,-0.2127,0,-0.209,-0.2111,-0.2197,-0.2214,-0.2252,-0.2291,-0.232,-0.2334,-0.2359,-0.2343,-0.2358,-0.2327,-0.2309,-0.2263,-0.2218,-0.2118,-0.2154,-0.2055,-0.204,-0.1978,-0.1966,-0.1942,-0.1973,-0.2125,-0.2125,-0.2126,-0.2126,0,-0.2027,-0.209,-0.2135,-0.2212,-0.2237,-0.2256,-0.2325,-0.2309,-0.2362,-0.2344,-0.2342,-0.2334,-0.2261,-0.2229,-0.2164,-0.2112,-0.2005,-0.1998,-0.192,-0.1894,-0.1795,-0.1831,-0.1782,-0.1734,-0.1893,-0.1891,-0.189,0,-0.1995,-0.2017,-0.2119,-0.2134,-0.2167,-0.2218,-0.2211,-0.2287,-0.2261,-0.2308,-0.2252,-0.2241,-0.2144,-0.2048,-0.1975,-0.1889,-0.191,-0.1779,-0.1778,-0.1764,-0.1794,-0.183,-0.1796,-0.1679,-0.1676,-0.1673,-0.1671,0,-0.1917,-0.196,-0.1996,-0.2027,-0.2037,-0.2043,-0.2045,-0.2055,-0.2092,-0.2109,-0.2046,-0.2005,-0.1947,-0.1817,-0.1751,-0.1693,-0.1746,-0.1718,-0.1726,-0.1633,-0.1648,-0.1601,-0.1738,-0.1647,-0.1649,-0.1651,-0.1652,-0.1653,-0.1833,-0.1847,-0.1871,-0.1876,-0.1858,-0.1758,-0.173,-0.1709,-0.1671,-0.1601,-0.1753,-0.165,-0.1705,-0.1588,-0.154,-0.1475,-0.1542,-0.1449,-0.1497,-0.1537,-0.1476,-0.1549,-0.1426,-0.1428,-0.1429,-0.1429,-0.143,0,-0.1712,-0.1707,-0.17,-0.1661,-0.1532,-0.1586,-0.1509,-0.1447,-0.1326,-0.1282,-0.1262,-0.132,-0.1273,-0.1325,-0.1328,-0.1277,-0.1266,-0.1274,-0.1319,-0.1296,-0.1366,-0.1339,-0.1163,-0.1163,-0.1164,-0.1164,-0.1164,-0.1164,-0.1644,-0.1584,-0.1568,-0.1305,-0.1267,-0.1091,-0.1024,-0.0941,-0.0889,-0.0775,-0.0758,-0.0798,-0.1006,-0.1292,-0.1288,-0.1234,-0.1228,-0.1194,-0.1229,-0.1302,-0.1323,-0.1343,-0.1323,-0.1148,-0.1148,-0.1101,-0.1101,-0.1101]},{"header":{"parameterUnit":"m.s-1","parameterCategory":2,"la1":30.2991,"la2":30.254,"lo1":-89.0895,"lo2":-89.0444,"dy":0.0017,"dx":0.0017,"nx":28,"ny":28,"refTime":"2023-03-16T21:00:00:Z","depth":"0","parameterNumber":3,"parameterNumberName":"V-component_of_CURRENTS"},"data":[0,0,0,0,0,0,0,0,0,0,0,0,0,0,0,0,0,0,0,0,0,0,0,0,0,0,0,0,0,0,0,0,0,0,0,0,0,0,0,0,0,0,0,0,0,0,0,0,0,0,0,0,0,0,0,0,0,0,-0.0191,-0.0191,0,-0.0118,-0.0117,-0.0116,-0.0068,-0.0068,-0.0068,-0.0068,0.0059,0.0062,0.0065,0,0,0,0,0,0,0,0,0,0,0,0,0,-0.0234,-0.0233,-0.0191,-0.0191,-0.019,-0.0118,-0.0117,-0.0116,-0.0068,-0.0068,-0.0068,-0.0068,0.0058,0.0061,0.0065,0,0,0,0,0,0,0,0,0,0,0,0,0,-0.0193,-0.0233,-0.0192,-0.0158,-0.0154,-0.0118,-0.0117,-0.0116,-0.0068,-0.0068,-0.0068,-0.0067,0.0056,0.0061,0.0066,0.0087,0,0,0.008,0.0082,0,0,0,0,0,0,0,0,-0.0195,-0.0191,-0.0164,-0.016,-0.0156,-0.0103,-0.0086,-0.0045,-0.0069,-0.01,-0.0068,-0.0067,0.0009,0.0018,0.0031,0.0093,0.0099,0.008,0.0083,0.0085,0.0087,0,0,0,0,0,0,0,-0.0198,-0.0194,-0.0162,-0.0163,-0.0158,-0.0127,-0.0121,-0.0078,-0.0047,-0.0097,-0.0094,-0.0087,0.0012,0.0026,0.0034,0.0101,0.008,0.0084,0.0087,0.0089,0.0197,0.0197,0,0,0,0,0,0,-0.0212,-0.0197,-0.0164,-0.0159,-0.0176,-0.0127,-0.012,-0.0119,-0.0049,-0.0038,-0.0087,-0.0085,0.0018,0.0029,0.0039,0.0075,0.0085,0.009,0.0092,0.0197,0.0197,0.0197,0,0,0,0,0,0,-0.0213,-0.021,-0.0167,-0.0176,-0.0169,-0.0127,-0.0126,-0.0118,-0.0104,-0.0042,-0.003,-0.0081,0.0019,0.0032,0.007,0.008,0.0092,0.0096,0.0197,0.0197,0.0197,0.0143,0,0,0,0,0,0,-0.0215,-0.0211,-0.0217,-0.0178,-0.0169,-0.0152,-0.0126,-0.0117,-0.01,-0.0097,-0.0032,-0.002,0.002,0.0062,0.0074,0.0086,0.01,0.0197,0.0197,0.0197,0.0145,0.0141,0.0138,0,0,0,0,0,-0.0217,-0.0226,-0.0218,-0.0213,-0.0178,-0.0152,-0.0145,-0.0112,-0.0101,-0.0098,-0.0058,-0.0022,0.0072,0.0065,0.008,0.0094,0.0197,0.0197,0.0197,0.0146,0.0142,0.0138,0,0,0,0,0,0,-0.0245,-0.0221,-0.0211,-0.0212,-0.0187,-0.0144,-0.0139,-0.0118,-0.0085,-0.0081,-0.0024,-0.0009,0.0028,0.0065,0.0057,0.0125,0.0142,0.0145,0.0098,0.0095,0.0091,0.008,0.0104,0,0,0,0,0,-0.0256,-0.0258,-0.0226,-0.0228,-0.0218,-0.0181,-0.0167,-0.0146,-0.0111,-0.0096,-0.0053,-0.0004,0.004,0.0068,0.0109,0.0146,0.0189,0.0165,0.0162,0.0159,0.0159,0.0223,0.0225,0.0198,0.0198,0.0198,0,0,-0.0266,-0.0254,-0.0255,-0.0234,-0.0212,-0.0205,-0.0171,-0.0155,-0.0144,-0.0087,-0.0061,-0.0017,0.0045,0.0083,0.0105,0.0117,0.0189,0.0159,0.0156,0.0158,0.0223,0.0226,0.0228,0.0198,0.0198,0.0198,0,0,-0.0293,-0.0279,-0.0291,-0.0275,-0.0251,-0.0225,-0.0224,-0.0185,-0.0164,-0.0136,-0.009,-0.0043,0.0019,0.0069,0.0102,0.0107,0.0165,0.0121,0.0104,0.0165,0.0168,0.0171,0.0227,0.0235,0.0125,0.0124,0.0124,0,-0.0308,-0.032,-0.0289,-0.0295,-0.0286,-0.0239,-0.0246,-0.0215,-0.0169,-0.0148,-0.0136,-0.0036,0.0015,0.0076,0.0078,0.0102,0.014,0.0112,0.016,0.0164,0.0168,0.0225,0.0235,0.0122,0.0122,0.0122,0.0123,0,-0.0343,-0.035,-0.0354,-0.0348,-0.033,-0.0329,-0.0285,-0.0263,-0.0233,-0.0196,-0.0139,-0.007,-0.0009,0.0019,0.0051,0.0108,0.0127,0.0143,0.0168,0.0168,0.0228,0.0239,0.0118,0.0119,0.012,0.012,0,0,-0.0387,-0.0383,-0.0385,-0.0391,-0.0361,-0.035,-0.0328,-0.0291,-0.027,-0.0216,-0.0183,-0.01,-0.0059,-0.002,0.0036,0.0095,0.0159,0.0126,0.013,0.0176,0.0291,0.0343,0.0361,0.0181,0.0182,0.0184,0.032,0,-0.0428,-0.0461,-0.0436,-0.0452,-0.0465,-0.0411,-0.0392,-0.0346,-0.0298,-0.0251,-0.0167,-0.0114,-0.0074,-0.0041,0.0022,0.0127,0.0186,0.012,0.0289,0.0294,0.0337,0.0376,0.0421,0.0551,0.0332,0.0334,0.0335,0,-0.0475,-0.0491,-0.0525,-0.051,-0.0507,-0.05,-0.0455,-0.043,-0.0347,-0.0304,-0.0236,-0.017,-0.0072,-0.0044,0.0131,0.0085,0.0178,0.0259,0.0266,0.0343,0.0368,0.0517,0.058,0.0719,0.0353,0.0352,0.0351,0,-0.0538,-0.0548,-0.058,-0.0578,-0.0553,-0.0546,-0.0522,-0.0452,-0.0409,-0.0337,-0.0291,-0.0186,-0.0108,0.0008,0.0172,0.0152,0.0368,0.0364,0.05,0.0504,0.0593,0.0602,0.0808,0.0484,0.0483,0.0483,0.0483,0,-0.0602,-0.0621,-0.0613,-0.0633,-0.0641,-0.0604,-0.0582,-0.0543,-0.0461,-0.0374,-0.0325,-0.0231,-0.009,0.0052,0.0172,0.0384,0.0373,0.0512,0.0551,0.0575,0.0581,0.0744,0.078,0.0488,0.0487,0.0486,0.0485,0,-0.0671,-0.0669,-0.0699,-0.0689,-0.0676,-0.0685,-0.0614,-0.0546,-0.0515,-0.0398,-0.037,-0.0241,-0.0055,0.0093,0.0311,0.041,0.068,0.0658,0.0672,0.0711,0.0946,0.0976,0.1193,0.1282,0.0824,0.0827,0.0828,0,-0.0712,-0.0742,-0.0745,-0.071,-0.0702,-0.0689,-0.0614,-0.0574,-0.0481,-0.0369,-0.0277,-0.0131,0.0033,0.0322,0.0517,0.0732,0.0813,0.0893,0.0865,0.0988,0.1051,0.105,0.1108,0.0962,0.0965,0.0967,0.0969,0,-0.0784,-0.0783,-0.0798,-0.071,-0.0645,-0.0575,-0.0486,-0.0441,-0.0331,-0.0241,-0.0062,0.0039,0.0268,0.053,0.0751,0.0866,0.0996,0.0947,0.1085,0.1192,0.1197,0.1291,0.0833,0.099,0.0988,0.0986,0.0985,0.0984,-0.0814,-0.0824,-0.0773,-0.0672,-0.0569,-0.0396,-0.0323,-0.0225,-0.0093,0.0098,0.0159,0.0357,0.0569,0.088,0.1015,0.1272,0.1201,0.1347,0.1378,0.137,0.1448,0.1031,0.122,0.1219,0.1219,0.1218,0.1218,0,-0.0813,-0.0769,-0.0683,-0.0538,-0.0371,-0.0326,-0.0144,-0.0086,0.0071,0.028,0.0446,0.0775,0.1056,0.1242,0.1555,0.1701,0.1706,0.1756,0.1777,0.1819,0.1479,0.1479,0.1721,0.1721,0.172,0.172,0.172,0.172,-0.0797,-0.0707,-0.0624,-0.0335,-0.0225,-0.0002,0.0101,0.0163,0.0278,0.0536,0.0789,0.0984,0.1234,0.1736,0.2055,0.2069,0.2201,0.2166,0.2241,0.201,0.1973,0.1939,0.195,0.2287,0.2288,0.2577,0.258,0.2582]}],[{"header":{"parameterUnit":"m.s-1","parameterCategory":2,"la1":30.2991,"la2":30.254,"lo1":-89.0895,"lo2":-89.0444,"dy":0.0017,"dx":0.0017,"nx":28,"ny":28,"refTime":"2023-03-16T21:00:00:Z","depth":"2","parameterNumber":2,"parameterNumberName":"U-component_of_CURRENTS"},"data":[0,0,0,0,0,0,0,0,0,0,0,0,0,0,0,0,0,0,0,0,0,0,0,0,0,0,0,0,0,0,0,0,0,0,0,0,0,0,0,0,0,0,0,0,0,0,0,0,0,0,0,0,0,0,0,0,0,0,-0.2112,-0.2112,0,-0.2123,-0.2123,-0.2123,-0.2133,-0.2133,-0.2133,-0.2133,-0.2158,-0.2158,-0.2158,0,0,0,0,0,0,0,0,0,0,0,0,0,-0.2073,-0.2074,-0.2112,-0.2112,-0.2113,-0.2123,-0.2123,-0.2123,-0.2132,-0.2133,-0.2133,-0.2134,-0.2158,-0.2158,-0.2158,0,0,0,0,0,0,0,0,0,0,0,0,0,-0.2085,-0.2074,-0.2112,-0.212,-0.2122,-0.2123,-0.2123,-0.2123,-0.2132,-0.2133,-0.2133,-0.2134,-0.2158,-0.2158,-0.2159,-0.2152,0,0,-0.216,-0.216,0,0,0,0,0,0,0,0,-0.2085,-0.2087,-0.2119,-0.212,-0.2121,-0.2129,-0.2118,-0.2134,-0.2132,-0.2126,-0.2133,-0.2134,-0.215,-0.2152,-0.2149,-0.2153,-0.2154,-0.216,-0.2161,-0.2161,-0.2161,0,0,0,0,0,0,0,-0.2084,-0.2086,-0.2114,-0.2119,-0.2121,-0.2115,-0.2117,-0.2121,-0.2134,-0.2127,-0.2128,-0.2132,-0.2151,-0.2149,-0.215,-0.2155,-0.216,-0.2161,-0.2161,-0.2161,-0.2131,-0.213,0,0,0,0,0,0,-0.2088,-0.2085,-0.2114,-0.2115,-0.2106,-0.2115,-0.2118,-0.2124,-0.2134,-0.2136,-0.2132,-0.2133,-0.2147,-0.2149,-0.2151,-0.2156,-0.2161,-0.2161,-0.2162,-0.2132,-0.213,-0.2129,0,0,0,0,0,0,-0.2087,-0.209,-0.2113,-0.2102,-0.2105,-0.2116,-0.2123,-0.2124,-0.2127,-0.2138,-0.214,-0.2135,-0.2148,-0.215,-0.2152,-0.2157,-0.2161,-0.2162,-0.2133,-0.2131,-0.213,-0.2159,0,0,0,0,0,0,-0.2086,-0.209,-0.2092,-0.2102,-0.2106,-0.2122,-0.2122,-0.2124,-0.213,-0.2132,-0.2141,-0.2144,-0.2148,-0.2151,-0.2152,-0.2158,-0.2162,-0.2134,-0.2132,-0.213,-0.216,-0.2159,-0.2158,0,0,0,0,0,-0.2084,-0.2091,-0.2092,-0.2095,-0.2109,-0.2122,-0.2123,-0.213,-0.213,-0.2134,-0.2133,-0.2144,-0.2138,-0.2151,-0.2153,-0.2159,-0.2136,-0.2133,-0.213,-0.216,-0.2159,-0.2158,0,0,0,0,0,0,-0.2075,-0.2093,-0.2094,-0.2106,-0.2115,-0.2125,-0.2128,-0.2131,-0.2132,-0.2133,-0.2138,-0.214,-0.2139,-0.2136,-0.215,-0.2137,-0.2135,-0.2133,-0.2157,-0.2156,-0.2155,-0.2163,-0.2163,0,0,0,0,0,-0.2074,-0.2082,-0.2097,-0.2104,-0.211,-0.2117,-0.2121,-0.2128,-0.2133,-0.2134,-0.2138,-0.2133,-0.2128,-0.2133,-0.2126,-0.2129,-0.212,-0.2127,-0.2126,-0.2126,-0.2129,-0.2117,-0.2117,-0.2121,-0.2121,-0.2121,0,0,-0.2071,-0.2082,-0.2086,-0.2102,-0.2108,-0.2124,-0.212,-0.2132,-0.2142,-0.2136,-0.2145,-0.2133,-0.2124,-0.2123,-0.2122,-0.2126,-0.2116,-0.2122,-0.2123,-0.2127,-0.2115,-0.2115,-0.2115,-0.2119,-0.2119,-0.212,0,0,-0.2076,-0.208,-0.2092,-0.2104,-0.212,-0.2126,-0.2131,-0.2142,-0.2143,-0.215,-0.2139,-0.2127,-0.213,-0.212,-0.2116,-0.2103,-0.2107,-0.2099,-0.2115,-0.2103,-0.2104,-0.2104,-0.2085,-0.2083,-0.2105,-0.2105,-0.2105,0,-0.2071,-0.2092,-0.2097,-0.2116,-0.2128,-0.213,-0.2149,-0.2151,-0.2159,-0.2157,-0.2157,-0.2135,-0.2128,-0.212,-0.2114,-0.2105,-0.2098,-0.2128,-0.2106,-0.2106,-0.2106,-0.2086,-0.2084,-0.2106,-0.2106,-0.2106,-0.2106,0,-0.2088,-0.2108,-0.2116,-0.2142,-0.2153,-0.2169,-0.2179,-0.2183,-0.2183,-0.2182,-0.2171,-0.2152,-0.2141,-0.2131,-0.2125,-0.2114,-0.2108,-0.2105,-0.2118,-0.2108,-0.2087,-0.2084,-0.2108,-0.2107,-0.2107,-0.2107,0,0,-0.2061,-0.2119,-0.2119,-0.2141,-0.2169,-0.218,-0.2197,-0.2207,-0.2214,-0.2206,-0.221,-0.2182,-0.2167,-0.2158,-0.214,-0.213,-0.2117,-0.2124,-0.2123,-0.2122,-0.2092,-0.2024,-0.2014,-0.2121,-0.212,-0.212,-0.2076,0,-0.2069,-0.2116,-0.214,-0.2177,-0.22,-0.2215,-0.223,-0.2238,-0.2238,-0.2241,-0.2213,-0.2205,-0.218,-0.2174,-0.2159,-0.2127,-0.2112,-0.2129,-0.2086,-0.2085,-0.204,-0.201,-0.1871,-0.1814,-0.2073,-0.2073,-0.2072,0,-0.2065,-0.2103,-0.2148,-0.2201,-0.221,-0.223,-0.225,-0.2267,-0.227,-0.227,-0.2257,-0.224,-0.2213,-0.2198,-0.2144,-0.216,-0.2127,-0.2102,-0.21,-0.2026,-0.2012,-0.1865,-0.18,-0.2068,-0.2068,-0.2069,-0.2069,0,-0.2031,-0.2098,-0.2136,-0.2155,-0.2216,-0.223,-0.2252,-0.2266,-0.2278,-0.2283,-0.2286,-0.2261,-0.2239,-0.2205,-0.2139,-0.2151,-0.2081,-0.2089,-0.1994,-0.1989,-0.1855,-0.1838,-0.2053,-0.2053,-0.2053,-0.2053,-0.2053,0,-0.2021,-0.2044,-0.2125,-0.2144,-0.2181,-0.222,-0.225,-0.2264,-0.2288,-0.228,-0.2291,-0.2265,-0.2242,-0.2196,-0.2149,-0.2049,-0.2083,-0.1987,-0.197,-0.1858,-0.1843,-0.2054,-0.2055,-0.2051,-0.2052,-0.2052,-0.2052,0,-0.1964,-0.2024,-0.2069,-0.2144,-0.2167,-0.2186,-0.225,-0.2247,-0.229,-0.2281,-0.2281,-0.227,-0.2199,-0.2162,-0.2094,-0.2043,-0.197,-0.1928,-0.1794,-0.1762,-0.1889,-0.1892,-0.1828,-0.1825,-0.1823,-0.1821,-0.1819,0,-0.1935,-0.1957,-0.2052,-0.2064,-0.2094,-0.2144,-0.215,-0.2226,-0.2214,-0.2253,-0.2212,-0.2191,-0.2105,-0.1998,-0.1908,-0.1813,-0.1886,-0.1653,-0.1644,-0.1874,-0.1865,-0.1871,-0.1877,-0.1476,-0.1471,-0.1468,-0.1465,0,-0.1861,-0.1901,-0.1932,-0.1957,-0.1976,-0.2038,-0.2055,-0.2075,-0.2127,-0.2146,-0.2099,-0.2054,-0.1928,-0.1754,-0.1659,-0.1592,-0.1661,-0.1577,-0.1837,-0.1559,-0.1539,-0.1531,-0.1549,-0.1433,-0.1436,-0.1438,-0.144,-0.1441,-0.1778,-0.1782,-0.18,-0.1796,-0.1841,-0.1874,-0.187,-0.1918,-0.1944,-0.1917,-0.194,-0.1806,-0.1728,-0.1483,-0.139,-0.1321,-0.1434,-0.1385,-0.1397,-0.1412,-0.1384,-0.1362,-0.1216,-0.1218,-0.122,-0.1221,-0.1223,0,-0.1642,-0.1632,-0.162,-0.1625,-0.1595,-0.1692,-0.1733,-0.1677,-0.1674,-0.1708,-0.1673,-0.1424,-0.1309,-0.1223,-0.1053,-0.1026,-0.1026,-0.1,-0.1005,-0.1036,-0.1065,-0.102,-0.0755,-0.0754,-0.0753,-0.0751,0,0,-0.1564,-0.149,-0.1464,-0.1341,-0.1359,-0.1317,-0.1335,-0.1324,-0.1311,-0.1257,-0.1212,-0.1272,-0.1193,-0.0987,-0.094,-0.0815,-0.0922,-0.0777,-0.1151,-0.1189,-0.1216,-0.1283,-0.1249,0,0,0,0,0]},{"header":{"parameterUnit":"m.s-1","parameterCategory":2,"la1":30.2991,"la2":30.254,"lo1":-89.0895,"lo2":-89.0444,"dy":0.0017,"dx":0.0017,"nx":28,"ny":28,"refTime":"2023-03-16T21:00:00:Z","depth":"2","parameterNumber":3,"parameterNumberName":"V-component_of_CURRENTS"},"data":[0,0,0,0,0,0,0,0,0,0,0,0,0,0,0,0,0,0,0,0,0,0,0,0,0,0,0,0,0,0,0,0,0,0,0,0,0,0,0,0,0,0,0,0,0,0,0,0,0,0,0,0,0,0,0,0,0,0,-0.0266,-0.0265,0,-0.0196,-0.0195,-0.0194,-0.0146,-0.0146,-0.0146,-0.0146,-0.0022,-0.0019,-0.0016,0,0,0,0,0,0,0,0,0,0,0,0,0,-0.0305,-0.0304,-0.0266,-0.0265,-0.0265,-0.0196,-0.0195,-0.0194,-0.0146,-0.0146,-0.0146,-0.0145,-0.0023,-0.0019,-0.0016,0,0,0,0,0,0,0,0,0,0,0,0,0,-0.0266,-0.0304,-0.0266,-0.0233,-0.023,-0.0196,-0.0195,-0.0193,-0.0146,-0.0146,-0.0146,-0.0145,-0.0024,-0.002,-0.0015,0.0005,0,0,-0.0001,0.0001,0,0,0,0,0,0,0,0,-0.0268,-0.0264,-0.0239,-0.0235,-0.0231,-0.018,-0.0163,-0.0125,-0.0147,-0.0177,-0.0146,-0.0145,-0.0071,-0.0062,-0.005,0.0011,0.0016,-0.0001,0.0002,0.0004,0.0005,0,0,0,0,0,0,0,-0.0271,-0.0267,-0.0237,-0.0238,-0.0233,-0.0203,-0.0197,-0.0155,-0.0125,-0.0175,-0.0171,-0.0165,-0.0068,-0.0054,-0.0046,0.0018,-0.0001,0.0003,0.0006,0.0008,0.0109,0.0109,0,0,0,0,0,0,-0.0285,-0.027,-0.024,-0.0235,-0.025,-0.0203,-0.0197,-0.0196,-0.0127,-0.0117,-0.0165,-0.0163,-0.0062,-0.0052,-0.0042,-0.0005,0.0004,0.0008,0.0011,0.0109,0.0109,0.0109,0,0,0,0,0,0,-0.0286,-0.0283,-0.0243,-0.0251,-0.0244,-0.0203,-0.0203,-0.0195,-0.018,-0.012,-0.0109,-0.0158,-0.0061,-0.0048,-0.0012,-0.0,0.001,0.0014,0.0109,0.0109,0.0109,0.0062,0,0,0,0,0,0,-0.0287,-0.0284,-0.0289,-0.0252,-0.0244,-0.0228,-0.0203,-0.0194,-0.0177,-0.0174,-0.0111,-0.0099,-0.006,-0.0019,-0.0008,0.0006,0.0018,0.0109,0.0109,0.0109,0.0064,0.006,0.0058,0,0,0,0,0,-0.0289,-0.0298,-0.029,-0.0286,-0.0253,-0.0228,-0.0221,-0.019,-0.0178,-0.0175,-0.0137,-0.0101,-0.0011,-0.0016,-0.0002,0.0013,0.0109,0.0109,0.0109,0.0065,0.0061,0.0058,0,0,0,0,0,0,-0.0315,-0.0293,-0.0284,-0.0285,-0.0262,-0.0221,-0.0215,-0.0195,-0.0162,-0.0158,-0.0103,-0.0089,-0.0053,-0.0018,-0.0024,0.0041,0.0056,0.0059,0.0018,0.0015,0.0012,0.0005,0.0022,0,0,0,0,0,-0.0326,-0.0328,-0.0299,-0.03,-0.0291,-0.0255,-0.0242,-0.0221,-0.0188,-0.0173,-0.0131,-0.0085,-0.0043,-0.0014,0.0024,0.0061,0.0101,0.008,0.0076,0.0074,0.0077,0.0139,0.0142,0.0109,0.0109,0.0109,0,0,-0.0336,-0.0325,-0.0325,-0.0306,-0.0285,-0.0277,-0.0246,-0.023,-0.0217,-0.0164,-0.0136,-0.0096,-0.0038,-0.0001,0.002,0.0032,0.0103,0.0074,0.0071,0.0076,0.0139,0.0142,0.0145,0.0109,0.0109,0.0109,0,0,-0.0359,-0.0349,-0.0359,-0.0343,-0.032,-0.0295,-0.0294,-0.0257,-0.0235,-0.0208,-0.0165,-0.012,-0.0062,-0.0012,0.002,0.0025,0.0079,0.0036,0.0026,0.0085,0.0089,0.0092,0.0142,0.015,0.0041,0.0041,0.0041,0,-0.0374,-0.0383,-0.0357,-0.036,-0.035,-0.0308,-0.0311,-0.0282,-0.0237,-0.0216,-0.0207,-0.0111,-0.0063,-0.0001,-0.0,0.0021,0.0056,0.0034,0.0082,0.0086,0.0091,0.0141,0.0151,0.0039,0.0039,0.0039,0.004,0,-0.0404,-0.0409,-0.0412,-0.0404,-0.0387,-0.0384,-0.0342,-0.0321,-0.0292,-0.0256,-0.02,-0.0137,-0.0078,-0.0053,-0.0023,0.0035,0.0049,0.0064,0.009,0.0091,0.0144,0.0155,0.0036,0.0036,0.0037,0.0038,0,0,-0.0447,-0.0437,-0.0439,-0.0443,-0.0412,-0.0401,-0.0377,-0.0339,-0.0317,-0.0266,-0.023,-0.0152,-0.0115,-0.0077,-0.0026,0.0032,0.0092,0.0056,0.0061,0.0104,0.0217,0.0259,0.0276,0.0113,0.0115,0.0116,0.0239,0,-0.0481,-0.0507,-0.0482,-0.0492,-0.0502,-0.045,-0.0428,-0.0383,-0.0338,-0.0292,-0.0211,-0.0162,-0.0124,-0.0095,-0.0032,0.0062,0.012,0.0057,0.0212,0.0217,0.0253,0.029,0.0229,0.0336,0.0251,0.0253,0.0254,0,-0.0524,-0.0536,-0.0561,-0.0542,-0.0537,-0.0529,-0.0483,-0.0456,-0.0375,-0.0335,-0.0267,-0.0207,-0.0111,-0.0088,0.0078,0.0033,0.0118,0.0191,0.0198,0.0263,0.028,0.0324,0.0361,0.0273,0.0272,0.027,0.0269,0,-0.0585,-0.0587,-0.0612,-0.0608,-0.0579,-0.0569,-0.0545,-0.0475,-0.0439,-0.0363,-0.0324,-0.0217,-0.0148,-0.0035,0.0113,0.0096,0.0295,0.0293,0.0412,0.0416,0.0409,0.041,0.0408,0.0408,0.0408,0.0408,0.0407,0,-0.0643,-0.0658,-0.0644,-0.0661,-0.0672,-0.0626,-0.061,-0.0568,-0.049,-0.0432,-0.0354,-0.0277,-0.013,-0.0001,0.0114,0.0307,0.03,0.0426,0.046,0.0391,0.0388,0.0367,0.036,0.0412,0.0411,0.041,0.041,0,-0.0712,-0.0703,-0.0731,-0.0716,-0.0708,-0.0718,-0.0659,-0.0619,-0.0558,-0.048,-0.0455,-0.0305,-0.0129,0.0022,0.0229,0.0325,0.0489,0.0555,0.0461,0.0483,0.0565,0.0555,0.0701,0.0704,0.0706,0.0708,0.0709,0,-0.0752,-0.0779,-0.0787,-0.079,-0.0785,-0.0778,-0.0741,-0.0668,-0.0611,-0.0479,-0.0426,-0.0259,-0.0108,0.0195,0.0381,0.0592,0.0578,0.0654,0.0621,0.0582,0.06,0.0586,0.0572,0.0588,0.0589,0.0589,0.0589,0,-0.0826,-0.0829,-0.085,-0.0879,-0.0857,-0.0864,-0.0812,-0.0795,-0.0678,-0.0579,-0.0436,-0.0313,0.0022,0.0252,0.0518,0.0618,0.0611,0.0672,0.0674,0.0524,0.0486,0.05,0.0489,0.0593,0.0593,0.0592,0.0592,0.0592,-0.0871,-0.0899,-0.0929,-0.0954,-0.0972,-0.1023,-0.1017,-0.0951,-0.0905,-0.0799,-0.0519,-0.0315,0.0015,0.035,0.0573,0.0715,0.0721,0.0727,0.0721,0.0716,0.0681,0.065,0.078,0.0781,0.0781,0.0782,0.0782,0,-0.0912,-0.0937,-0.0982,-0.1057,-0.1126,-0.1107,-0.1092,-0.1055,-0.103,-0.0865,-0.0672,-0.0305,0.0001,0.0293,0.0559,0.0774,0.0719,0.0762,0.0662,0.0658,0.0654,0.0613,0.0696,0.0696,0.0697,0.0697,0,0,-0.0923,-0.0976,-0.1008,-0.1187,-0.1243,-0.1329,-0.1334,-0.1278,-0.1154,-0.1016,-0.0838,-0.0508,-0.0029,0.0146,0.0429,0.0565,0.0534,0.0544,0.0589,0.0433,0.0426,0.061,0.0539,0,0,0,0,0]}],[{"header":{"parameterUnit":"m.s-1","parameterCategory":2,"la1":30.2991,"la2":30.254,"lo1":-89.0895,"lo2":-89.0444,"dy":0.0017,"dx":0.0017,"nx":28,"ny":28,"refTime":"2023-03-16T21:00:00:Z","depth":"4","parameterNumber":2,"parameterNumberName":"U-component_of_CURRENTS"},"data":[0,0,0,0,0,0,0,0,0,0,0,0,0,0,0,0,0,0,0,0,0,0,0,0,0,0,0,0,0,0,0,0,0,0,0,0,0,0,0,0,0,0,0,0,0,0,0,0,0,0,0,0,0,0,0,0,0,0,-0.1561,-0.1562,0,-0.1621,-0.1622,-0.1622,-0.1681,-0.1682,-0.1683,-0.1684,-0.177,-0.1772,-0.1773,0,0,0,0,0,0,0,0,0,0,0,0,0,-0.148,-0.1481,-0.1561,-0.1562,-0.1563,-0.1621,-0.1622,-0.1623,-0.1681,-0.1682,-0.1684,-0.1685,-0.177,-0.1771,-0.1773,0,0,0,0,0,0,0,0,0,0,0,0,0,-0.1524,-0.1482,-0.1561,-0.1601,-0.1605,-0.1621,-0.1622,-0.1623,-0.1681,-0.1682,-0.1684,-0.1685,-0.1769,-0.1771,-0.1773,-0.1759,0,0,-0.178,-0.1781,0,0,0,0,0,0,0,0,-0.1521,-0.1526,-0.1594,-0.1598,-0.1603,-0.1647,-0.1625,-0.167,-0.1681,-0.165,-0.1684,-0.1686,-0.1731,-0.1737,-0.1742,-0.1763,-0.1766,-0.178,-0.1781,-0.1782,-0.1783,0,0,0,0,0,0,0,-0.1518,-0.1524,-0.1583,-0.1595,-0.16,-0.161,-0.1617,-0.1633,-0.1682,-0.1653,-0.1658,-0.1667,-0.1734,-0.174,-0.1745,-0.1768,-0.178,-0.1782,-0.1783,-0.1784,-0.1818,-0.1817,0,0,0,0,0,0,-0.1514,-0.1521,-0.1582,-0.1585,-0.1566,-0.161,-0.1619,-0.163,-0.1681,-0.169,-0.1666,-0.1669,-0.1736,-0.1742,-0.1748,-0.1798,-0.1782,-0.1784,-0.1786,-0.1818,-0.1818,-0.1817,0,0,0,0,0,0,-0.1512,-0.1518,-0.1579,-0.1556,-0.1565,-0.161,-0.1622,-0.163,-0.1666,-0.169,-0.17,-0.1697,-0.1737,-0.1745,-0.1782,-0.18,-0.1785,-0.1787,-0.1819,-0.1818,-0.1817,-0.1857,0,0,0,0,0,0,-0.1509,-0.1517,-0.1534,-0.1556,-0.1566,-0.1609,-0.1621,-0.1631,-0.1669,-0.1675,-0.172,-0.1728,-0.1739,-0.1779,-0.1785,-0.1802,-0.1789,-0.1819,-0.1818,-0.1818,-0.1856,-0.1858,-0.1859,0,0,0,0,0,-0.1506,-0.1522,-0.1534,-0.1542,-0.1584,-0.161,-0.1616,-0.1651,-0.1669,-0.1688,-0.1715,-0.1728,-0.1778,-0.1781,-0.1787,-0.1806,-0.1819,-0.1819,-0.1818,-0.1855,-0.1857,-0.1859,0,0,0,0,0,0,-0.1498,-0.153,-0.1544,-0.1571,-0.1597,-0.1621,-0.1645,-0.1664,-0.1699,-0.1713,-0.1733,-0.1742,-0.1777,-0.1779,-0.1782,-0.1808,-0.1796,-0.1797,-0.1823,-0.1825,-0.1826,-0.1829,-0.1791,0,0,0,0,0,-0.1502,-0.1525,-0.1552,-0.1576,-0.1591,-0.1621,-0.164,-0.1664,-0.1692,-0.171,-0.1739,-0.1759,-0.177,-0.1791,-0.1801,-0.1825,-0.181,-0.1834,-0.1836,-0.1837,-0.184,-0.1828,-0.183,-0.1814,-0.1814,-0.1814,0,0,-0.1507,-0.1527,-0.1542,-0.1577,-0.1601,-0.1629,-0.1637,-0.1675,-0.1703,-0.1712,-0.1765,-0.1771,-0.1776,-0.18,-0.1815,-0.1813,-0.183,-0.1836,-0.1838,-0.184,-0.1828,-0.1829,-0.1831,-0.1814,-0.1814,-0.1814,0,0,-0.1521,-0.1546,-0.157,-0.1594,-0.1635,-0.1651,-0.1667,-0.1705,-0.1729,-0.177,-0.1774,-0.179,-0.1826,-0.1824,-0.1827,-0.1839,-0.1836,-0.1844,-0.1866,-0.1855,-0.1856,-0.1858,-0.1831,-0.1829,-0.1849,-0.185,-0.185,0,-0.1528,-0.156,-0.1581,-0.161,-0.1636,-0.1664,-0.1696,-0.1719,-0.1766,-0.178,-0.1796,-0.1823,-0.1832,-0.1842,-0.1847,-0.1846,-0.1836,-0.1866,-0.1859,-0.186,-0.186,-0.1833,-0.1831,-0.1851,-0.1851,-0.1851,-0.1851,0,-0.1552,-0.159,-0.1607,-0.1653,-0.168,-0.1714,-0.1745,-0.1778,-0.1809,-0.1826,-0.1855,-0.1859,-0.1873,-0.1873,-0.1873,-0.1877,-0.1866,-0.1861,-0.186,-0.1865,-0.1834,-0.1832,-0.1854,-0.1853,-0.1853,-0.1852,0,0,-0.1532,-0.161,-0.162,-0.1653,-0.1708,-0.1731,-0.1775,-0.1811,-0.184,-0.1874,-0.1901,-0.191,-0.191,-0.191,-0.1903,-0.1897,-0.189,-0.1891,-0.1889,-0.1874,-0.1859,-0.1749,-0.1735,-0.1895,-0.1895,-0.1895,-0.1833,0,-0.1547,-0.1611,-0.1644,-0.1707,-0.174,-0.178,-0.1816,-0.1853,-0.1883,-0.1915,-0.1913,-0.1935,-0.1924,-0.1934,-0.1926,-0.1901,-0.1886,-0.1906,-0.1848,-0.1845,-0.1756,-0.1729,-0.1894,-0.1831,-0.183,-0.183,-0.1829,0,-0.1549,-0.1596,-0.1662,-0.1738,-0.1756,-0.1796,-0.1854,-0.189,-0.1929,-0.1952,-0.1967,-0.197,-0.1964,-0.1957,-0.1914,-0.1932,-0.1899,-0.1876,-0.1872,-0.1755,-0.173,-0.1825,-0.1824,-0.1825,-0.1825,-0.1825,-0.1826,0,-0.1512,-0.1602,-0.1658,-0.1686,-0.1774,-0.181,-0.1853,-0.1901,-0.1928,-0.1972,-0.199,-0.1989,-0.1987,-0.1956,-0.1904,-0.1918,-0.1849,-0.1856,-0.172,-0.1712,-0.1817,-0.1817,-0.1821,-0.1821,-0.1821,-0.1821,-0.1821,0,-0.1495,-0.1542,-0.1653,-0.1682,-0.174,-0.1806,-0.1858,-0.1898,-0.1952,-0.1958,-0.2003,-0.1987,-0.199,-0.195,-0.1908,-0.1789,-0.1845,-0.171,-0.1685,-0.1832,-0.1834,-0.1814,-0.1815,-0.1819,-0.1819,-0.182,-0.182,0,-0.1434,-0.1513,-0.1581,-0.1691,-0.1723,-0.1763,-0.1854,-0.1861,-0.1946,-0.1954,-0.1966,-0.1988,-0.1924,-0.1902,-0.1838,-0.177,-0.1687,-0.1633,-0.1778,-0.1765,-0.156,-0.1563,-0.1474,-0.147,-0.1466,-0.1463,-0.146,0,-0.1403,-0.1437,-0.1567,-0.1573,-0.1622,-0.1696,-0.1709,-0.1831,-0.1834,-0.1916,-0.1883,-0.1882,-0.1866,-0.1682,-0.1686,-0.1589,-0.157,-0.1526,-0.1553,-0.1538,-0.1523,-0.1532,-0.154,-0.1454,-0.1453,-0.1452,-0.1451,0,-0.1325,-0.1388,-0.1427,-0.1457,-0.1487,-0.1542,-0.1588,-0.1601,-0.1705,-0.1803,-0.1748,-0.1713,-0.1642,-0.1582,-0.1518,-0.1453,-0.1557,-0.1486,-0.1494,-0.152,-0.1512,-0.1503,-0.1516,-0.1438,-0.144,-0.1441,-0.1442,0,-0.1245,-0.1239,-0.128,-0.1295,-0.1337,-0.1351,-0.1421,-0.1421,-0.1481,-0.1593,-0.1559,-0.1565,-0.1609,-0.1508,-0.1443,-0.1376,-0.1359,-0.132,-0.1337,-0.1352,-0.134,-0.1315,-0.1141,0,0,0,0,0,-0.1142,-0.1094,-0.1087,-0.111,-0.1158,-0.1198,-0.1293,-0.1366,-0.1499,-0.1409,-0.1497,-0.1424,-0.1354,-0.1362,-0.1261,-0.1374,-0.1357,-0.1253,-0.1321,-0.1365,-0.138,-0.1377,0,0,0,0,0,0,-0.105,-0.1032,-0.1029,-0.0966,-0.0943,-0.0997,-0.1067,-0.1162,-0.1145,-0.1269,-0.1229,-0.1326,-0.1265,-0.1366,-0.122,-0.1222,-0.1235,-0.1275,-0.1271,-0.1356,-0.137,-0.1382,-0.1384,0,0,0,0,0]},{"header":{"parameterUnit":"m.s-1","parameterCategory":2,"la1":30.2991,"la2":30.254,"lo1":-89.0895,"lo2":-89.0444,"dy":0.0017,"dx":0.0017,"nx":28,"ny":28,"refTime":"2023-03-16T21:00:00:Z","depth":"4","parameterNumber":3,"parameterNumberName":"V-component_of_CURRENTS"},"data":[0,0,0,0,0,0,0,0,0,0,0,0,0,0,0,0,0,0,0,0,0,0,0,0,0,0,0,0,0,0,0,0,0,0,0,0,0,0,0,0,0,0,0,0,0,0,0,0,0,0,0,0,0,0,0,0,0,0,-0.0242,-0.0242,0,-0.0194,-0.0193,-0.0193,-0.016,-0.016,-0.0159,-0.0159,-0.0058,-0.0056,-0.0053,0,0,0,0,0,0,0,0,0,0,0,0,0,-0.0259,-0.0259,-0.0242,-0.0242,-0.0241,-0.0194,-0.0193,-0.0193,-0.016,-0.016,-0.0159,-0.0159,-0.0059,-0.0056,-0.0053,0,0,0,0,0,0,0,0,0,0,0,0,0,-0.0234,-0.0259,-0.0242,-0.022,-0.0218,-0.0194,-0.0193,-0.0192,-0.016,-0.016,-0.0159,-0.0159,-0.006,-0.0056,-0.0053,-0.0033,0,0,-0.0041,-0.0039,0,0,0,0,0,0,0,0,-0.0236,-0.0233,-0.0224,-0.0221,-0.0219,-0.0184,-0.0162,-0.0137,-0.016,-0.0181,-0.0159,-0.0159,-0.0096,-0.0089,-0.008,-0.0028,-0.0024,-0.004,-0.0038,-0.0036,-0.0035,0,0,0,0,0,0,0,-0.0237,-0.0235,-0.0222,-0.0223,-0.022,-0.0196,-0.0193,-0.0157,-0.0138,-0.0179,-0.0176,-0.0173,-0.0094,-0.0084,-0.0077,-0.0022,-0.0041,-0.0037,-0.0035,-0.0033,0.0048,0.0048,0,0,0,0,0,0,-0.0248,-0.0237,-0.0223,-0.0221,-0.0228,-0.0196,-0.0193,-0.0194,-0.014,-0.0132,-0.0173,-0.0172,-0.009,-0.0082,-0.0073,-0.0041,-0.0036,-0.0033,-0.0031,0.0048,0.0048,0.0048,0,0,0,0,0,0,-0.0249,-0.0248,-0.0225,-0.0228,-0.0224,-0.0197,-0.0199,-0.0193,-0.0185,-0.0136,-0.0127,-0.0171,-0.009,-0.0079,-0.0051,-0.0037,-0.0031,-0.0028,0.0048,0.0048,0.0048,0.0019,0,0,0,0,0,0,-0.025,-0.0249,-0.0255,-0.0229,-0.0224,-0.0217,-0.0199,-0.0193,-0.0183,-0.0181,-0.0131,-0.0121,-0.0089,-0.0057,-0.0047,-0.0032,-0.0025,0.0049,0.0048,0.0048,0.002,0.0018,0.0016,0,0,0,0,0,-0.0251,-0.0259,-0.0256,-0.0254,-0.0234,-0.0217,-0.0212,-0.0191,-0.0184,-0.0182,-0.0153,-0.0123,-0.0051,-0.0054,-0.0042,-0.0026,0.0049,0.0048,0.0048,0.0021,0.0018,0.0016,0,0,0,0,0,0,-0.0268,-0.0256,-0.0252,-0.0257,-0.0242,-0.0212,-0.021,-0.0196,-0.0172,-0.017,-0.0125,-0.0114,-0.0086,-0.0057,-0.0061,-0.0005,0.0004,0.0006,-0.002,-0.0022,-0.0024,-0.0022,-0.0021,0,0,0,0,0,-0.0277,-0.0283,-0.0263,-0.0268,-0.0263,-0.0238,-0.023,-0.0216,-0.0192,-0.0181,-0.0148,-0.0111,-0.0077,-0.0053,-0.0023,0.001,0.0043,0.0028,0.0025,0.0024,0.0032,0.0089,0.0093,0.0047,0.0047,0.0047,0,0,-0.0285,-0.028,-0.0283,-0.0273,-0.0259,-0.0251,-0.0232,-0.0224,-0.0211,-0.0173,-0.0149,-0.0121,-0.0074,-0.0042,-0.0025,-0.0013,0.005,0.0023,0.0021,0.0031,0.0089,0.0094,0.0098,0.0047,0.0047,0.0047,0,0,-0.03,-0.03,-0.0307,-0.0297,-0.0283,-0.0266,-0.0266,-0.0241,-0.0225,-0.0204,-0.0172,-0.0137,-0.0092,-0.0046,-0.0019,-0.0013,0.0029,-0.0009,-0.0004,0.0051,0.0055,0.006,0.0091,0.0099,-0.0001,-0.0001,-0.0001,0,-0.0312,-0.0316,-0.0306,-0.0306,-0.0297,-0.0275,-0.0272,-0.0252,-0.022,-0.0201,-0.0203,-0.0125,-0.0088,-0.0026,-0.0027,-0.0014,0.0011,0.0002,0.0049,0.0055,0.006,0.0091,0.01,-0.0002,-0.0002,-0.0002,-0.0002,0,-0.0327,-0.033,-0.0332,-0.0326,-0.0314,-0.0311,-0.0282,-0.0268,-0.0251,-0.0223,-0.0177,-0.013,-0.008,-0.0063,-0.0042,0.0017,0.0018,0.0032,0.0057,0.0063,0.0095,0.0104,-0.0004,-0.0004,-0.0003,-0.0003,0,0,-0.0358,-0.0346,-0.0349,-0.0347,-0.0325,-0.0319,-0.0295,-0.0262,-0.0244,-0.0209,-0.0176,-0.0113,-0.0089,-0.0057,-0.002,0.0034,0.0084,0.0045,0.0049,0.0078,0.0188,0.0162,0.017,0.0105,0.0107,0.0108,0.0189,0,-0.0374,-0.0385,-0.0365,-0.0366,-0.0368,-0.0334,-0.0313,-0.0279,-0.0248,-0.0214,-0.0149,-0.0113,-0.0085,-0.0067,-0.0007,0.0059,0.0111,0.006,0.0177,0.018,0.0159,0.0182,0.0114,0.0196,0.0199,0.02,0.0202,0,-0.0396,-0.0401,-0.041,-0.0389,-0.0385,-0.038,-0.0343,-0.0321,-0.0258,-0.0231,-0.0174,-0.0133,-0.0051,-0.004,0.0097,0.006,0.0121,0.0174,0.0179,0.0176,0.0173,0.0194,0.022,0.0219,0.0217,0.0216,0.0215,0,-0.0437,-0.0429,-0.044,-0.0436,-0.0409,-0.0403,-0.0386,-0.0334,-0.0316,-0.0248,-0.023,-0.0128,-0.0085,0.0015,0.0115,0.0108,0.0256,0.0263,0.0302,0.03,0.0312,0.0306,0.0365,0.0364,0.0364,0.0364,0.0364,0,-0.0464,-0.0473,-0.0467,-0.0477,-0.0495,-0.0448,-0.045,-0.0415,-0.036,-0.0347,-0.0251,-0.0214,-0.007,0.0024,0.0117,0.0235,0.0262,0.0311,0.0328,0.0293,0.0285,0.0318,0.0311,0.0367,0.0366,0.0366,0.0365,0,-0.051,-0.0501,-0.0527,-0.0518,-0.0523,-0.0542,-0.0526,-0.0535,-0.0448,-0.0429,-0.0412,-0.0273,-0.0143,-0.0003,0.0164,0.023,0.0348,0.0382,0.0323,0.0333,0.0353,0.0344,0.0439,0.0439,0.0439,0.0439,0.0439,0,-0.0532,-0.0552,-0.0589,-0.0635,-0.0642,-0.0659,-0.0692,-0.0614,-0.0615,-0.0472,-0.0479,-0.0323,-0.023,-0.0009,0.0149,0.0337,0.0358,0.041,0.04,0.0358,0.0365,0.0356,0.0347,0.0439,0.0439,0.0439,0.0439,0,-0.0583,-0.0607,-0.0637,-0.0736,-0.0793,-0.0833,-0.0852,-0.0847,-0.075,-0.0673,-0.0537,-0.0379,-0.0223,-0.003,0.0121,0.0254,0.0373,0.041,0.0411,0.0402,0.0359,0.0364,0.0355,0.0438,0.0438,0.0439,0.0439,0,-0.0634,-0.0683,-0.0743,-0.0821,-0.0908,-0.0968,-0.0965,-0.0936,-0.0889,-0.0712,-0.0673,-0.0444,-0.0298,-0.0071,0.0066,0.0199,0.0233,0.0257,0.0267,0.0269,0.0197,0.0116,0.0144,0,0,0,0,0,-0.0673,-0.073,-0.0824,-0.0899,-0.099,-0.1021,-0.1057,-0.1033,-0.0935,-0.0871,-0.0752,-0.0599,-0.0318,-0.0176,-0.0051,0.0045,0.0235,0.0194,0.026,0.0438,0.0438,0.038,0,0,0,0,0,0,-0.0703,-0.0789,-0.0827,-0.0938,-0.1001,-0.1082,-0.1107,-0.1055,-0.0991,-0.087,-0.0729,-0.058,-0.0324,-0.0389,-0.0047,0.0004,0.0056,0.0349,0.0351,0.0437,0.0438,0.0438,0.0379,0,0,0,0,0]}]]